Regional Weather Roundup
Issued by NWS

Home | Current Version | Previous Version | Graphics & Text | Print | Product List | Glossary On
Versions: 1 2 3 4 5 6 7 8 9 10 11 12 13 14 15 16 17 18 19 20 21 22 23 24 25 26 27 28 29 30 31 32 33 34 35 36 37 38 39 40 41 42 43 44 45 46 47 48 49 50
000
ASUS43 KFSD 232202
RWRSD

WEATHER ROUNDUP FOR SOUTH DAKOTA
NATIONAL WEATHER SERVICE SIOUX FALLS SD
500 PM CDT SAT MAY 23 2015

NOTE: "FAIR" INDICATES FEW OR NO CLOUDS BELOW 12,000 FEET WITH NO
SIGNIFICANT WEATHER AND/OR OBSTRUCTIONS TO VISIBILITY.


SDZ001>005-009-010-012>017-232300-
NORTHWEST AND NORTH CENTRAL SOUTH DAKOTA

CITY           SKY/WX    TMP DP  RH WIND       PRES   REMARKS
FAITH            N/A     58  48  69 E7        30.06F
MOBRIDGE       CLOUDY    61  52  72 SE10      30.08F
$$

SDZ012>016-024>037-041>051-057-063-072>074-232300-
SOUTHWEST AND SOUTH CENTRAL SOUTH DAKOTA

CITY           SKY/WX    TMP DP  RH WIND       PRES   REMARKS
RAPID CTY ARPT CLOUDY    56  49  77 E8        30.02F
PIERRE         CLOUDY    61  53  75 E13       30.04F
CUSTER         CLOUDY    49  45  86 NE8       30.05R
ELLSWORTH AFB  CLOUDY    57  50  78 E9        30.02F
PHILIP         CLOUDY    62  53  72 E15       30.02F
PINE RIDGE     CLOUDY    60  51  72 E16       29.98F
WINNER         CLOUDY    62  53  72 SE15      30.05F
$$

SDZ004>011-016>023-039-040-232300-
NORTHEAST SOUTH DAKOTA

CITY           SKY/WX    TMP DP  RH WIND       PRES   REMARKS
ABERDEEN       CLOUDY    65  50  58 N6        30.11F
WATERTOWN      CLOUDY    64  49  57 SE13      30.12F
BROOKINGS      CLOUDY    64  48  55 S5        30.12F
$$

SDZ017-020-022-023-036>040-048>070-232300-
SOUTHEAST SOUTH DAKOTA

CITY           SKY/WX    TMP DP  RH WIND       PRES   REMARKS
SIOUX FALLS    CLOUDY    65  52  62 S10       30.10F
HURON          CLOUDY    65  52  62 SE8       30.09F
CHAMBERLAIN    CLOUDY    63  55  75 SE12      30.06F
MITCHELL       CLOUDY    64  54  69 SE12      30.09F
YANKTON        CLOUDY    63  54  72 S13       30.08F
$$

ABBREVIATIONS USED IN REMARKS
   TC - TEMPERATURE IN CELSIUS
  WCI - WIND CHILL INDEX
   HX - HEAT INDEX
  VSB - VISIBILITY



USA.gov is the U.S. government's official web portal to all federal, state and local government web resources and services.